Simultaneous Nadir Overpasses (SNOs) Predictions

Prediction of SNOs between TERRA and METOP-C Satellite Orbit:

Table of predicted SNOs for the next 14.0 days since TLE Epoch: 11/16/2019
Index Date (TERRA) Time (TERRA) Lat,Lon (TERRA) SZA (TERRA ) Date (METOP-C) Time (METOP-C) Lat,Lon (METOP-C) SZA (METOP-C ) Distance(km) Time Diff (sec)
1 11/16/2019 10:04:22 81.33, 76.80 103.19 11/16/2019 10:03:32 81.33, 76.71 103.15 1.69 50
2 11/16/2019 10:53:49 -81.33,-115.62 76.82 11/16/2019 10:54:12 -81.33,-115.76 76.82 2.34 23
3 11/19/2019 05:38:37 81.32, 143.06 103.82 11/19/2019 05:37:53 81.33, 143.24 103.82 3.08 44
4 11/19/2019 06:28:04 -81.32, -49.33 76.18 11/19/2019 06:28:33 -81.33, -49.25 76.15 1.65 29
5 11/22/2019 01:12:50 81.33,-150.35 104.46 11/22/2019 01:12:13 81.33,-150.24 104.45 1.95 37
6 11/22/2019 02:02:17 -81.33, 17.28 75.54 11/22/2019 02:02:53 -81.33, 17.25 75.53 0.41 36
7 11/24/2019 20:47:05 81.32, -84.19 104.98 11/24/2019 20:46:35 81.33, -84.10 104.98 1.70 30
8 11/24/2019 21:36:31 -81.34, 83.84 74.96 11/24/2019 21:37:14 -81.33, 83.76 74.96 1.50 43
9 11/27/2019 16:21:19 81.32, -17.68 105.49 11/27/2019 16:20:56 81.33, -17.58 105.50 1.97 23




NCC Satellite Simultaneous Nadir Overpasses (SNOs) Prediction Service
